Regional Weather Roundup
Issued by NWS Newport/Morehead, NC

Current Version | Previous Version | Text Only | Print | Product List | Glossary On
Versions: 1 2 3 4 5 6 7 8 9 10 11 12 13 14 15 16 17 18 19 20 21 22 23 24 25 26 27 28 29 30 31 32 33 34 35 36 37 38 39 40 41 42 43 44 45 46 47 48 49 50
000
ASUS42 KMHX 012022
RWRMHX
WEATHER ROUNDUP FOR EASTERN NORTH CAROLINA
NATIONAL WEATHER SERVICE NEWPORT/MOREHEAD CITY NC
400 PM EDT WED OCT 01 2014

NOTE: "FAIR" INDICATES FEW OR NO CLOUDS BELOW 12,000 FEET
WITH NO SIGNIFICANT WEATHER AND/OR OBSTRUCTIONS TO VISIBILITY

NCZ015>017-031-032-045>047-102-103-012100-
NORTH COAST

CITY           SKY/WX    TMP DP  RH WIND       PRES   REMARKS
EDENTON        PTSUNNY   77  63  61 NW3       29.97S
ELIZABETH CITY MOSUNNY   77  63  61 NE9       29.97S
KITTY HAWK     PTCLDY    73  63  72 N8        29.96S
MANTEO         MOSUNNY   73  64  71 N12G17    29.98S

$$

NCZ045>047-081-094-103-104-012100-
CENTRAL COAST

CITY           SKY/WX    TMP DP  RH WIND       PRES   REMARKS
FRISCO         SUNNY     73  64  73 N9G21     29.96S
SWANQUARTER      N/A     77 N/A N/A N2G9      29.91S

$$

NCZ095-097-098-100-101-012100-
SOUTHERN COAST

CITY           SKY/WX    TMP DP  RH WIND       PRES   REMARKS
BEAUFORT       MOSUNNY   80  64  58 N8        29.95F
CEDAR ISLAND     N/A     75 N/A N/A NE5       30.00S
JACKSONVILLE   SUNNY     81  62  52 N9        29.96S
NEWPORT        NOT AVBL
PINEY ISLAND   CLEAR     79  63  57 E9        29.96S
WILMINGTON     MOSUNNY   82  64  54 N6        29.96F


$$

NCZ011>013-027>030-043-044-078>080-089-090>093-098-012100-
COASTAL PLAIN

CITY           SKY/WX    TMP DP  RH WIND       PRES   REMARKS
AHOSKIE        MOSUNNY   76  63  63 N3        29.98S
CLINTON        MOSUNNY   79  66  65 N3        29.98S
ELIZABETHTOWN  MOSUNNY   81  64  54 CALM      29.97S
GOLDSBORO      MOSUNNY   80  67  65 CALM      29.96F
GREENVILLE     MOSUNNY   79  63  57 N6        30.00S
HAVELOCK       MOSUNNY   81  64  56 NW7       29.97S
KENANSVILLE    MOSUNNY   80  61  53 N6        29.98S
KINSTON        MOSUNNY   77  63  61 N6        29.98F
NEW BERN       PTSUNNY   82  63  52 N9        29.97F
RICHLANDS      PTSUNNY   81  63  54 N7        29.96F
ROANOKE RAPIDS NOT AVBL
ROCKY MOUNT    MOSUNNY   79  63  57 NW5       29.99S
WASHINGTON     MOSUNNY   78  64  61 N8        29.98S
WHITEVILLE     SUNNY     81  63  53 NE3       29.96F

$$

AMZ130-135-150-152-154-156-158-170-250-252-270-ANZ085-086-088-633-658-670-012100-
MARINE OBSERVATIONS

STATION/POSITION TIME  TEMP    WIND        PRES    WAVE   SWELL
                       AIR SEA DIR/SP/G            HT/PER HT/PER
                 (UTC) (F)     (DEG/KT/KT) (MB)    (FT/S) (FT/S)
CHESAPEAKE LIGHT 2000   70      10/  8/  9 1015.8
BUOY 44014       2000   70 71   10/ 16/ 17 1013.9    4/ 6   2/14
DUCK             2000   70 73  360/ 12/ 15 1014.2
2E DUCK          2000                        N/A     3/ 5   2/13
OREGON INLET     2000   72 73  350/ 11/ 16 1014.8
BUOY 44095       2000      74                N/A     4/ 7   2/12
20E OREGON INLET NOT AVBL
HATTERAS CG      2000   72 74   20/ 16/ 19 1014.8
DIAMOND BUOY     2000   72     350/ 17/ 21 1014.0    4/ 7   3/ 7
CAPE LOOKOUT     2000   75      50/  8/  9 1014.4
BEAUFORT LAB     2000   78 75   10/  7/ 10 1013.9
30 SE NEW RIVER  2000   75 80   10/  6/  8 1014.1    2/ 7   2/ 7
5 SE WRIGHTSVILL 2000   71 76  110/  6/  8   N/A
BUOY 41002       1939   79 81   20/ 10/ 12 1012.3    4/ 7   3/ 7
BUOY 41004       2000   77 81   30/  8/ 10 1014.6    3/ 6   2/ 6

$$


USA.gov is the U.S. government's official web portal to all federal, state and local government web resources and services.